STARLINK-5353, 57370

Orbit data source: Space-Track

STARLINK-5353, 57370 is a payload satellite owned by SpaceX/Seattle (US) in LEO that was launched on Sun, 16 Jul 2023 UTC via an FALCON 9 launch vehicle from the Air Force Eastern Test Range (AFETR). Payload-class satellites include a variety of spacecraft equipped with specific instruments for various scientific and technological missions. These include communications satellites like Starlink; space stations such as the ISS; scientific satellites like the Hubble; Earth observation satellites from companies like Planet Labs, Umbra, and HawkEye 360; GPS; miniature CubeSats for education and research; and military/defense satellites.

Loading next visibility...
Identifier
57370, 2023-099AU
Orbit
LEO
Country
Flag of USUS
Related business
Manufacturer
SpaceX/Seattle
Mission
Operational Commercial Communications
Bus & Motor
STARLINK, Unknown motor
Mass
305 kg wet, ~290 kg dry
Launch date (UTC)
2023-07-16 (3 years ago)
Launch vehicle
FALCON 9
Launch site
Air Force Eastern Test Range (AFETR)
Object type
Payload
Rocket body
Debris
Shape & HBR
Box + 1 Pan, 10.1 m
Radar Cross Section
11.087 m², Large (>1 m²)

Expand to show TLE details & history
Last TLE update: 2 days ago

TLE from 2 days ago
0 STARLINK-5353
1 57370U 23099AU  26170.99390780 -.00000356  00000-0 -33872-5 0  9990
2 57370  43.0055  24.0652 0001717 273.5391  86.5265 15.27575618161845
Epoch: 2026-06-19T23:51Z
TLE epoch observation values (Epoch: 2026-06-19T23:51:13.633Z)
Latitude
0.00001°
Longitude
118.0435°
Altitude
482.767 km
Speed
7.626 km/s
True Right ascension
01h 36m 15s
True Declination
0° 00' 00"
Sunlit
Object was in daylight at epoch
Visualization orbit readout
Latitude
Unknown
Longitude
Unknown
Altitude
Unknown
Speed
Unknown
Apparent Right ascension
Unknown
Apparent Declination
Unknown
Sunlit
N/A
Visualization observer readout
Local Sidereal Time
21:30:13
Azimuth
Unknown
Elevation
Unknown
Doppler factor
Unknown
Orbital elements
Apogee altitude
486.185 km
Perigee altitude
483.828 km
Semi-major axis
6,863.143 km
Eccentricity
0.00017
Inclination
43.0055°
RAAN
24.0652°
Arg. of periapsis
273.5391°
True anomaly
86.54614°
Mean anomaly
86.5265°
Eccentric anomaly
86.53632°
Mean motion
3.81732 °/min
Orbital period
94.31 mins
BSTAR
-0.0000033872
Loading maneuver chart data...
Computing Atmospheric mass density...
Loading historical data...
Loading historical data...
Loading historical data...
Loading historical data...
Loading historical data...
Loading historical data...
Loading historical data...

Documentation

Showing up to 5 results
|